TimePDT,TemperatureF,Dew PointF,Humidity,Sea Level PressureIn,VisibilityMPH,Wind Direction,Wind SpeedMPH,Gust SpeedMPH,PrecipitationIn,Events,Conditions,WindDirDegrees,DateUTC
12:09 AM,53.6,51.8,94,30.06,5.0,Calm,Calm,-,N/A,,Scattered Clouds,0,2013-10-26 07:09:00
12:18 AM,53.6,51.8,94,30.06,5.0,ENE,3.5,-,N/A,,Mostly Cloudy,70,2013-10-26 07:18:00
12:51 AM,54.0,53.1,97,30.07,5.0,Calm,Calm,-,N/A,,Overcast,0,2013-10-26 07:51:00
1:51 AM,55.0,53.1,93,30.07,4.0,ENE,4.6,-,N/A,,Overcast,60,2013-10-26 08:51:00
2:07 AM,55.4,53.6,94,30.07,1.8,Calm,Calm,-,N/A,,Overcast,0,2013-10-26 09:07:00
2:17 AM,55.4,55.4,100,30.07,0.2,Calm,Calm,-,N/A,Fog,Fog,0,2013-10-26 09:17:00
2:24 AM,55.4,53.6,94,30.07,0.2,Calm,Calm,-,N/A,Fog,Fog,0,2013-10-26 09:24:00
2:51 AM,54.0,54.0,100,30.07,0.5,Calm,Calm,-,N/A,Fog,Fog,0,2013-10-26 09:51:00
3:10 AM,53.6,53.6,100,30.07,1.2,Calm,Calm,-,N/A,,Overcast,0,2013-10-26 10:10:00
3:34 AM,53.6,53.6,100,30.07,1.0,Calm,Calm,-,N/A,,Mist,0,2013-10-26 10:34:00
3:41 AM,53.6,53.6,100,30.07,0.2,NE,3.5,-,N/A,Fog,Fog,50,2013-10-26 10:41:00
3:51 AM,52.0,52.0,100,30.07,0.2,NE,3.5,-,N/A,Fog,Fog,40,2013-10-26 10:51:00
4:05 AM,51.8,51.8,100,30.06,0.2,NE,3.5,-,N/A,Fog,Fog,40,2013-10-26 11:05:00
4:51 AM,48.9,48.9,100,30.06,0.5,ENE,3.5,-,N/A,Fog,Fog,70,2013-10-26 11:51:00
5:06 AM,48.2,48.2,100,30.06,2.0,ENE,5.8,-,N/A,,Mostly Cloudy,70,2013-10-26 12:06:00
5:09 AM,48.2,48.2,100,30.06,3.0,ENE,5.8,-,N/A,,Scattered Clouds,70,2013-10-26 12:09:00
5:51 AM,46.9,46.9,100,30.06,4.0,ENE,3.5,-,0.01,,Clear,60,2013-10-26 12:51:00
6:51 AM,48.0,46.9,96,30.07,5.0,Calm,Calm,-,N/A,,Clear,0,2013-10-26 13:51:00
7:51 AM,48.9,46.0,90,30.08,7.0,East,3.5,-,N/A,,Clear,90,2013-10-26 14:51:00
8:51 AM,55.0,48.0,77,30.09,7.0,NE,3.5,-,N/A,,Clear,50,2013-10-26 15:51:00
9:51 AM,60.1,52.0,75,30.09,5.0,ESE,4.6,-,N/A,,Haze,110,2013-10-26 16:51:00
10:51 AM,64.0,54.0,70,30.07,5.0,Calm,Calm,-,N/A,,Haze,0,2013-10-26 17:51:00
11:51 AM,64.0,50.0,60,30.07,6.0,West,6.9,-,N/A,,Haze,280,2013-10-26 18:51:00
12:51 PM,63.0,55.9,78,30.06,7.0,WNW,12.7,-,N/A,,Clear,290,2013-10-26 19:51:00
1:01 PM,64.4,55.4,73,30.05,7.0,WNW,12.7,19.6,N/A,,Partly Cloudy,290,2013-10-26 20:01:00
1:51 PM,63.0,55.9,78,30.02,6.0,West,12.7,17.3,N/A,,Haze,280,2013-10-26 20:51:00
2:51 PM,64.0,55.9,75,30.00,6.0,West,13.8,-,N/A,,Haze,280,2013-10-26 21:51:00
3:51 PM,63.0,57.0,81,30.00,7.0,West,12.7,-,N/A,,Clear,270,2013-10-26 22:51:00
4:51 PM,64.0,57.0,78,29.98,8.0,WNW,9.2,-,N/A,,Clear,290,2013-10-26 23:51:00
5:51 PM,61.0,57.0,87,29.98,7.0,NW,5.8,-,N/A,,Clear,310,2013-10-27 00:51:00
6:51 PM,59.0,57.0,93,29.98,7.0,WNW,3.5,-,N/A,,Clear,300,2013-10-27 01:51:00
7:51 PM,57.9,57.0,97,29.98,6.0,WNW,4.6,-,N/A,,Clear,300,2013-10-27 02:51:00
8:51 PM,57.9,57.0,97,29.98,6.0,WNW,4.6,-,N/A,,Clear,300,2013-10-27 03:51:00
9:51 PM,57.9,57.0,97,29.99,5.0,NW,4.6,-,N/A,,Clear,310,2013-10-27 04:51:00
10:51 PM,55.9,55.0,97,29.99,5.0,Calm,Calm,-,N/A,,Clear,0,2013-10-27 05:51:00
11:11 PM,55.4,55.4,100,29.99,4.0,Calm,Calm,-,N/A,,Scattered Clouds,0,2013-10-27 06:11:00
11:51 PM,55.0,55.0,100,29.98,5.0,Calm,Calm,-,N/A,,Clear,0,2013-10-27 06:51:00